Time,TemperatureF,DewpointF,PressureIn,WindDirection,WindDirectionDegrees,WindSpeedMPH,WindSpeedGustMPH,Humidity,HourlyPrecipIn,Conditions,Clouds,dailyrainin,SoftwareType,DateUTC
2013-02-28 00:02:00,32.0,31.0,29.58,WSW,240,4.0,6.0,96,0.00,,,0.47,,2013-02-28 05:02:00,
2013-02-28 00:11:00,32.0,31.0,29.58,WSW,240,4.0,6.0,96,0.00,,,0.47,,2013-02-28 05:11:00,
2013-02-28 00:22:00,32.0,31.0,29.58,WSW,238,3.0,6.0,96,0.00,,,0.32,,2013-02-28 05:22:00,
2013-02-28 00:32:00,32.0,31.0,29.58,WSW,241,4.0,6.0,96,0.00,,,0.32,,2013-02-28 05:32:00,
2013-02-28 00:42:00,32.0,31.0,29.58,WSW,241,4.0,6.0,96,0.00,,,0.32,,2013-02-28 05:42:00,
2013-02-28 00:52:00,32.0,31.0,29.58,SW,228,4.0,5.0,96,0.00,,,0.32,,2013-02-28 05:52:00,
2013-02-28 01:01:00,32.0,31.0,29.58,WSW,243,5.0,7.0,96,0.00,,,0.32,,2013-02-28 06:01:00,
2013-02-28 01:11:00,32.0,31.0,29.58,WSW,243,5.0,7.0,96,0.00,,,0.32,,2013-02-28 06:11:00,
2013-02-28 01:22:00,32.0,31.0,29.57,WSW,240,4.0,6.0,96,0.00,,,0.25,,2013-02-28 06:22:00,
2013-02-28 01:32:00,32.0,31.0,29.57,South,184,3.0,5.0,96,0.00,,,0.25,,2013-02-28 06:32:00,
2013-02-28 01:42:00,32.0,31.0,29.57,South,184,3.0,5.0,96,0.00,,,0.25,,2013-02-28 06:42:00,
2013-02-28 01:52:00,32.0,31.0,29.57,SW,219,4.0,6.0,96,0.00,,,0.25,,2013-02-28 06:52:00,
2013-02-28 02:01:00,32.0,31.0,29.56,SW,231,3.0,5.0,96,0.00,,,0.25,,2013-02-28 07:01:00,
2013-02-28 02:11:00,32.0,31.0,29.56,SW,231,3.0,5.0,96,0.00,,,0.25,,2013-02-28 07:11:00,
2013-02-28 02:22:00,32.0,31.0,29.56,SW,229,4.0,7.0,96,0.00,,,0.24,,2013-02-28 07:22:00,
2013-02-28 02:32:00,32.0,31.0,29.56,SW,225,5.0,7.0,96,0.00,,,0.24,,2013-02-28 07:32:00,
2013-02-28 02:42:00,32.0,31.0,29.56,SW,225,5.0,7.0,96,0.00,,,0.24,,2013-02-28 07:42:00,
2013-02-28 02:52:00,32.0,31.0,29.55,WSW,252,4.0,8.0,96,0.00,,,0.24,,2013-02-28 07:52:00,
2013-02-28 03:01:00,32.0,31.0,29.55,WSW,244,8.0,12.0,96,0.00,,,0.24,,2013-02-28 08:01:00,
2013-02-28 03:11:00,32.0,31.0,29.55,WSW,244,8.0,12.0,96,0.00,,,0.24,,2013-02-28 08:11:00,
2013-02-28 03:22:00,32.0,31.0,29.54,WSW,252,5.0,11.0,96,0.00,,,0.23,,2013-02-28 08:22:00,
2013-02-28 03:32:00,32.0,31.0,29.54,SW,224,7.0,11.0,96,0.00,,,0.23,,2013-02-28 08:32:00,
2013-02-28 03:42:00,32.0,31.0,29.54,SW,224,7.0,11.0,96,0.00,,,0.23,,2013-02-28 08:42:00,
2013-02-28 03:53:00,32.0,31.0,29.54,WSW,239,9.0,12.0,96,0.00,,,0.23,,2013-02-28 08:53:00,
2013-02-28 04:03:00,32.0,31.0,29.54,WSW,240,8.0,15.0,95,0.00,,,0.23,,2013-02-28 09:03:00,
2013-02-28 04:12:00,32.0,31.0,29.54,WSW,240,8.0,15.0,95,0.00,,,0.23,,2013-02-28 09:12:00,
2013-02-28 04:22:00,32.0,31.0,29.53,WSW,244,7.0,13.0,95,0.00,,,0.22,,2013-02-28 09:22:00,
2013-02-28 04:32:00,32.0,31.0,29.54,WSW,246,10.0,14.0,95,0.00,,,0.22,,2013-02-28 09:32:00,
2013-02-28 04:42:00,32.0,31.0,29.54,WSW,246,10.0,14.0,95,0.00,,,0.22,,2013-02-28 09:42:00,
2013-02-28 04:52:00,32.0,31.0,29.54,WSW,250,7.0,12.0,95,0.00,,,0.22,,2013-02-28 09:52:00,
2013-02-28 05:02:00,32.0,31.0,29.54,SW,229,7.0,11.0,95,0.00,,,0.22,,2013-02-28 10:02:00,
2013-02-28 05:12:00,32.0,31.0,29.54,SW,229,7.0,11.0,95,0.00,,,0.22,,2013-02-28 10:12:00,
2013-02-28 05:22:00,32.0,31.0,29.54,SW,233,6.0,11.0,95,0.00,,,0.22,,2013-02-28 10:22:00,
2013-02-28 05:32:00,32.0,31.0,29.55,WSW,248,6.0,16.0,95,0.00,,,0.22,,2013-02-28 10:32:00,
2013-02-28 05:42:00,32.0,31.0,29.55,WSW,248,6.0,16.0,95,0.00,,,0.22,,2013-02-28 10:42:00,
2013-02-28 05:52:00,32.0,31.0,29.55,WSW,244,6.0,9.0,95,0.00,,,0.22,,2013-02-28 10:52:00,
2013-02-28 06:02:00,32.0,31.0,29.55,WSW,252,4.0,8.0,95,0.00,,,0.22,,2013-02-28 11:02:00,
2013-02-28 06:11:00,32.0,31.0,29.55,WSW,252,4.0,8.0,95,0.00,,,0.22,,2013-02-28 11:11:00,
2013-02-28 06:22:00,32.0,31.0,29.55,WSW,239,7.0,10.0,95,0.00,,,0.22,,2013-02-28 11:22:00,
2013-02-28 06:32:00,32.0,31.0,29.55,SW,226,5.0,9.0,95,0.00,,,0.22,,2013-02-28 11:32:00,
2013-02-28 06:42:00,32.0,31.0,29.55,SW,226,5.0,9.0,95,0.00,,,0.22,,2013-02-28 11:42:00,
2013-02-28 06:52:00,32.0,31.0,29.55,SW,236,6.0,9.0,95,0.00,,,0.22,,2013-02-28 11:52:00,
2013-02-28 07:02:00,32.0,31.0,29.55,WSW,257,4.0,10.0,96,0.00,,,0.22,,2013-02-28 12:02:00,
2013-02-28 07:12:00,32.0,31.0,29.55,WSW,257,4.0,10.0,96,0.00,,,0.22,,2013-02-28 12:12:00,
2013-02-28 07:22:00,32.0,31.0,29.55,SSW,212,4.0,9.0,96,0.00,,,0.21,,2013-02-28 12:22:00,
2013-02-28 07:32:00,32.0,31.0,29.55,WSW,250,5.0,8.0,96,0.00,,,0.21,,2013-02-28 12:32:00,
2013-02-28 07:42:00,32.0,31.0,29.55,WSW,250,5.0,8.0,96,0.00,,,0.21,,2013-02-28 12:42:00,
2013-02-28 07:53:00,32.0,31.0,29.55,SW,233,7.0,9.0,96,0.00,,,0.21,,2013-02-28 12:53:00,
2013-02-28 08:02:00,32.0,31.0,29.56,WSW,246,5.0,9.0,96,0.00,,,0.21,,2013-02-28 13:02:00,
2013-02-28 08:12:00,32.0,31.0,29.56,WSW,246,5.0,9.0,96,0.00,,,0.21,,2013-02-28 13:12:00,
2013-02-28 08:22:00,32.0,31.0,29.56,WNW,287,7.0,10.0,96,0.00,,,0.20,,2013-02-28 13:22:00,
2013-02-28 08:32:00,32.0,31.0,29.56,WSW,238,4.0,7.0,95,0.00,,,0.20,,2013-02-28 13:32:00,
2013-02-28 08:42:00,32.0,31.0,29.56,WSW,238,4.0,7.0,95,0.00,,,0.20,,2013-02-28 13:42:00,
2013-02-28 08:52:00,32.0,31.0,29.56,WSW,248,6.0,8.0,95,0.00,,,0.20,,2013-02-28 13:52:00,
2013-02-28 09:02:00,32.0,31.0,29.57,WSW,240,4.0,6.0,95,0.00,,,0.20,,2013-02-28 14:02:00,
2013-02-28 09:11:00,32.0,31.0,29.57,SW,215,5.0,8.0,95,0.00,,,0.20,,2013-02-28 14:11:00,
2013-02-28 09:22:00,32.0,31.0,29.57,SW,215,5.0,8.0,95,0.00,,,0.20,,2013-02-28 14:22:00,
2013-02-28 09:32:00,32.0,31.0,29.57,SW,226,6.0,9.0,95,0.00,,,0.20,,2013-02-28 14:32:00,
2013-02-28 09:42:00,32.0,31.0,29.57,SW,226,6.0,9.0,95,0.00,,,0.20,,2013-02-28 14:42:00,
2013-02-28 09:52:00,33.0,32.0,29.57,WSW,244,6.0,11.0,95,0.00,,,0.20,,2013-02-28 14:52:00,
2013-02-28 10:02:00,33.0,32.0,29.57,WSW,255,7.0,11.0,95,0.00,,,0.20,,2013-02-28 15:02:00,
2013-02-28 10:11:00,33.0,32.0,29.57,WSW,255,7.0,11.0,95,0.00,,,0.20,,2013-02-28 15:11:00,
2013-02-28 10:22:00,33.0,31.0,29.57,West,266,7.0,10.0,94,0.01,,,0.21,,2013-02-28 15:22:00,
2013-02-28 10:32:00,33.0,31.0,29.57,SW,233,8.0,12.0,94,0.01,,,0.21,,2013-02-28 15:32:00,
2013-02-28 10:42:00,33.0,31.0,29.57,SW,233,8.0,12.0,94,0.01,,,0.21,,2013-02-28 15:42:00,
2013-02-28 10:52:00,34.0,32.0,29.57,WSW,243,7.0,11.0,94,0.02,,,0.22,,2013-02-28 15:52:00,
2013-02-28 11:02:00,34.0,32.0,29.57,SW,233,5.0,10.0,94,0.03,,,0.23,,2013-02-28 16:02:00,
2013-02-28 11:12:00,34.0,32.0,29.57,SW,233,5.0,10.0,94,0.03,,,0.23,,2013-02-28 16:12:00,
2013-02-28 11:22:00,34.0,32.0,29.57,WSW,252,5.0,10.0,93,0.04,,,0.23,,2013-02-28 16:22:00,
2013-02-28 11:32:00,34.0,32.0,29.57,West,262,7.0,10.0,93,0.06,,,0.25,,2013-02-28 16:32:00,
2013-02-28 11:42:00,34.0,32.0,29.57,West,262,7.0,10.0,93,0.06,,,0.25,,2013-02-28 16:42:00,
2013-02-28 11:53:00,34.0,32.0,29.57,West,267,6.0,13.0,93,0.05,,,0.25,,2013-02-28 16:53:00,
2013-02-28 12:02:00,34.0,32.0,29.58,SW,219,6.0,9.0,93,0.05,,,0.26,,2013-02-28 17:02:00,
2013-02-28 12:12:00,34.0,32.0,29.58,West,260,7.0,9.0,93,0.04,,,0.22,,2013-02-28 17:12:00,
2013-02-28 12:22:00,34.0,32.0,29.58,West,260,7.0,9.0,93,0.04,,,0.22,,2013-02-28 17:22:00,
2013-02-28 12:32:00,34.0,32.0,29.58,WSW,250,5.0,9.0,93,0.03,,,0.23,,2013-02-28 17:32:00,
2013-02-28 12:42:00,34.0,32.0,29.58,WSW,250,5.0,9.0,93,0.03,,,0.23,,2013-02-28 17:42:00,
2013-02-28 12:53:00,34.0,32.0,29.58,West,273,6.0,9.0,93,0.04,,,0.24,,2013-02-28 17:53:00,
2013-02-28 13:02:00,34.0,32.0,29.58,WSW,256,5.0,7.0,93,0.03,,,0.24,,2013-02-28 18:02:00,
2013-02-28 13:12:00,34.0,32.0,29.58,WSW,256,5.0,7.0,93,0.03,,,0.24,,2013-02-28 18:12:00,
2013-02-28 13:22:00,34.0,32.0,29.59,West,264,5.0,8.0,93,0.03,,,0.22,,2013-02-28 18:22:00,
2013-02-28 13:32:00,34.0,32.0,29.59,West,259,4.0,8.0,93,0.03,,,0.23,,2013-02-28 18:32:00,
2013-02-28 13:42:00,34.0,32.0,29.59,West,259,4.0,8.0,93,0.03,,,0.23,,2013-02-28 18:42:00,
2013-02-28 13:52:00,34.0,32.0,29.59,West,273,4.0,7.0,93,0.02,,,0.23,,2013-02-28 18:52:00,
2013-02-28 14:02:00,34.0,32.0,29.59,WNW,285,3.0,7.0,93,0.03,,,0.24,,2013-02-28 19:02:00,
2013-02-28 14:12:00,34.0,32.0,29.59,WNW,285,3.0,7.0,93,0.03,,,0.24,,2013-02-28 19:12:00,
2013-02-28 14:22:00,34.0,32.0,29.59,NW,311,4.0,6.0,93,0.03,,,0.21,,2013-02-28 19:22:00,
2013-02-28 14:32:00,34.0,32.0,29.59,WNW,297,3.0,8.0,93,0.02,,,0.21,,2013-02-28 19:32:00,
2013-02-28 14:42:00,34.0,32.0,29.59,WNW,297,3.0,8.0,93,0.02,,,0.21,,2013-02-28 19:42:00,
2013-02-28 14:52:00,34.0,32.0,29.59,NW,315,6.0,8.0,94,0.03,,,0.22,,2013-02-28 19:52:00,
2013-02-28 15:01:00,34.0,32.0,29.60,NW,316,6.0,10.0,93,0.03,,,0.23,,2013-02-28 20:01:00,
2013-02-28 15:12:00,34.0,32.0,29.60,NW,316,6.0,10.0,93,0.03,,,0.23,,2013-02-28 20:12:00,
2013-02-28 15:22:00,34.0,32.0,29.60,NW,307,5.0,8.0,92,0.02,,,0.21,,2013-02-28 20:22:00,
2013-02-28 15:32:00,34.0,32.0,29.61,NNW,343,2.0,6.0,93,0.03,,,0.22,,2013-02-28 20:32:00,
2013-02-28 15:42:00,34.0,32.0,29.61,NNW,343,2.0,6.0,93,0.03,,,0.22,,2013-02-28 20:42:00,
2013-02-28 15:52:00,34.0,32.0,29.62,NNW,342,6.0,10.0,93,0.02,,,0.22,,2013-02-28 20:52:00,
2013-02-28 16:02:00,34.0,32.0,29.62,NNW,343,5.0,7.0,92,0.01,,,0.22,,2013-02-28 21:02:00,
2013-02-28 16:11:00,34.0,32.0,29.62,NNW,343,5.0,7.0,92,0.01,,,0.22,,2013-02-28 21:11:00,
2013-02-28 16:22:00,34.0,32.0,29.62,NW,321,4.0,8.0,91,0.02,,,0.20,,2013-02-28 21:22:00,
2013-02-28 16:32:00,34.0,32.0,29.63,NNW,341,5.0,8.0,91,0.01,,,0.20,,2013-02-28 21:32:00,
2013-02-28 16:42:00,34.0,32.0,29.63,NNW,341,5.0,8.0,91,0.01,,,0.20,,2013-02-28 21:42:00,
2013-02-28 16:52:00,34.0,31.0,29.63,NNW,346,6.0,8.0,90,0.01,,,0.20,,2013-02-28 21:52:00,
2013-02-28 17:01:00,35.0,32.0,29.64,NNW,332,4.0,7.0,90,0.01,,,0.21,,2013-02-28 22:01:00,
2013-02-28 17:11:00,35.0,32.0,29.64,NNW,332,4.0,7.0,90,0.01,,,0.21,,2013-02-28 22:11:00,
2013-02-28 17:22:00,34.0,31.0,29.64,NW,314,5.0,8.0,90,0.01,,,0.20,,2013-02-28 22:22:00,
2013-02-28 17:32:00,34.0,31.0,29.65,NNW,328,4.0,9.0,90,0.01,,,0.20,,2013-02-28 22:32:00,
2013-02-28 17:42:00,34.0,31.0,29.65,NNW,328,4.0,9.0,90,0.01,,,0.20,,2013-02-28 22:42:00,
2013-02-28 17:52:00,34.0,32.0,29.65,NW,318,4.0,7.0,91,0.01,,,0.20,,2013-02-28 22:52:00,
2013-02-28 18:01:00,34.0,32.0,29.66,WNW,287,6.0,8.0,92,0.00,,,0.20,,2013-02-28 23:01:00,
2013-02-28 18:11:00,34.0,32.0,29.66,WNW,287,6.0,8.0,92,0.00,,,0.20,,2013-02-28 23:11:00,
2013-02-28 18:22:00,34.0,32.0,29.67,WNW,297,3.0,7.0,92,0.00,,,0.20,,2013-02-28 23:22:00,
2013-02-28 18:32:00,34.0,32.0,29.67,West,270,2.0,6.0,92,0.01,,,0.21,,2013-02-28 23:32:00,
2013-02-28 18:42:00,34.0,32.0,29.67,West,270,2.0,6.0,92,0.01,,,0.21,,2013-02-28 23:42:00,
2013-02-28 18:53:00,34.0,32.0,29.68,WNW,287,2.0,5.0,93,0.01,,,0.21,,2013-02-28 23:53:00,
2013-02-28 19:02:00,34.0,32.0,29.68,NW,307,4.0,7.0,93,0.01,,,0.21,,2013-03-01 00:02:00,
2013-02-28 19:11:00,34.0,32.0,29.68,NW,307,4.0,7.0,93,0.01,,,0.21,,2013-03-01 00:11:00,
2013-02-28 19:22:00,34.0,32.0,29.69,WNW,294,4.0,10.0,93,0.01,,,0.21,,2013-03-01 00:22:00,
2013-02-28 19:32:00,34.0,32.0,29.69,West,264,5.0,7.0,92,0.00,,,0.21,,2013-03-01 00:32:00,
2013-02-28 19:42:00,34.0,32.0,29.69,West,264,5.0,7.0,92,0.00,,,0.21,,2013-03-01 00:42:00,
2013-02-28 19:52:00,34.0,32.0,29.70,WNW,283,4.0,6.0,93,0.00,,,0.21,,2013-03-01 00:52:00,
2013-02-28 20:01:00,34.0,32.0,29.70,WNW,294,4.0,9.0,93,0.00,,,0.21,,2013-03-01 01:01:00,
2013-02-28 20:11:00,34.0,32.0,29.70,WNW,294,4.0,9.0,93,0.00,,,0.21,,2013-03-01 01:11:00,
2013-02-28 20:22:00,33.0,31.0,29.70,NW,311,4.0,11.0,94,0.00,,,0.21,,2013-03-01 01:22:00,
2013-02-28 20:32:00,33.0,31.0,29.70,WNW,300,4.0,7.0,94,0.00,,,0.21,,2013-03-01 01:32:00,
2013-02-28 20:42:00,33.0,31.0,29.70,WNW,300,4.0,7.0,94,0.00,,,0.21,,2013-03-01 01:42:00,
2013-02-28 20:52:00,33.0,32.0,29.71,NNW,329,10.0,12.0,95,0.00,,,0.21,,2013-03-01 01:52:00,
2013-02-28 21:01:00,33.0,32.0,29.71,NNW,328,9.0,17.0,95,0.01,,,0.22,,2013-03-01 02:01:00,
2013-02-28 21:11:00,33.0,32.0,29.72,NNW,342,11.0,17.0,95,0.02,,,0.23,,2013-03-01 02:11:00,
2013-02-28 21:22:00,33.0,32.0,29.72,NNW,342,11.0,17.0,95,0.02,,,0.23,,2013-03-01 02:22:00,
2013-02-28 21:32:00,33.0,31.0,29.72,NW,323,7.0,16.0,94,0.02,,,0.23,,2013-03-01 02:32:00,
2013-02-28 21:42:00,33.0,31.0,29.72,NW,323,7.0,16.0,94,0.02,,,0.23,,2013-03-01 02:42:00,
2013-02-28 21:52:00,33.0,32.0,29.73,NNW,330,7.0,15.0,95,0.02,,,0.23,,2013-03-01 02:52:00,
2013-02-28 22:02:00,33.0,32.0,29.73,NW,314,8.0,13.0,95,0.01,,,0.23,,2013-03-01 03:02:00,
2013-02-28 22:12:00,33.0,32.0,29.73,NW,314,8.0,13.0,95,0.01,,,0.23,,2013-03-01 03:12:00,
2013-02-28 22:22:00,32.0,31.0,29.73,North,360,8.0,12.0,95,0.00,,,0.23,,2013-03-01 03:22:00,
2013-02-28 22:32:00,32.0,31.0,29.73,NNW,348,7.0,10.0,95,0.00,,,0.23,,2013-03-01 03:32:00,
2013-02-28 22:42:00,32.0,31.0,29.73,NNW,348,7.0,10.0,95,0.00,,,0.23,,2013-03-01 03:42:00,
2013-02-28 22:52:00,32.0,31.0,29.74,North,4,8.0,13.0,95,0.00,,,0.23,,2013-03-01 03:52:00,
2013-02-28 23:01:00,32.0,31.0,29.74,NW,310,5.0,10.0,95,0.00,,,0.23,,2013-03-01 04:01:00,
2013-02-28 23:12:00,32.0,31.0,29.74,NW,310,5.0,10.0,95,0.00,,,0.23,,2013-03-01 04:12:00,
2013-02-28 23:22:00,32.0,31.0,29.75,NNW,348,9.0,13.0,95,0.00,,,0.23,,2013-03-01 04:22:00,
2013-02-28 23:32:00,32.0,31.0,29.75,NW,326,7.0,13.0,95,0.00,,,0.23,,2013-03-01 04:32:00,
2013-02-28 23:42:00,32.0,31.0,29.75,NW,326,7.0,13.0,95,0.00,,,0.23,,2013-03-01 04:42:00,
2013-02-28 23:52:00,31.0,29.0,29.75,NW,326,9.0,16.0,94,0.00,,,0.23,,2013-03-01 04:52:00,